"Sample Date","Sample Time","Sensor Name","Sample Value","Units","Flow Rate","Sample Interval","Sample Volume","Laser Status","Number Channels","Micron Size 0","Counts/Channel 0","Micron Size 1","Counts/Channel 1","Micron Size 2","Counts/Channel 2","Micron Size 3","Counts/Channel 3","Micron Size 4","Counts/Channel 4","Micron Size 5","Counts/Channel 5","Micron Size 6","Counts/Channel 6","Micron Size 7","Counts/Channel 7","Micron Size 8","Counts/Channel 8","Micron Size 9","Counts/Channel 9","Micron Size 10","Counts/Channel 10","Micron Size 11","Counts/Channel 11","Micron Size 12","Counts/Channel 12","Micron Size 13","Counts/Channel 13","Micron Size 14","Counts/Channel 14","Micron Size 15","Counts/Channel 15","Micron Size 16","Counts/Channel 16","Micron Size 17","Counts/Channel 17","Micron Size 18","Counts/Channel 18","Micron Size 19","Counts/Channel 19","Micron Size 20","Counts/Channel 20","Micron Size 21","Counts/Channel 21","Micron Size 22","Counts/Channel 22","Micron Size 23","Counts/Channel 23","Micron Size 24","Counts/Channel 24","Micron Size 25","Counts/Channel 25","Micron Size 26","Counts/Channel 26","Micron Size 27","Counts/Channel 27","Micron Size 28","Counts/Channel 28","Micron Size 29","Counts/Channel 29","Micron Size 30","Counts/Channel 30","Micron Size 31","Counts/Channel 31"
"07/11/06","16:00:02","AMMA06",80202.000,"cc",28265.072,6.00,2826.507,1,6,0.100,40878.000,0.200,32091.000,0.300,5991.000,0.500,773.000,1.000,469.000,5.000,0
"07/11/06","16:00:08","AMMA06",79090.000,"cc",28357.107,6.00,2835.711,1,6,0.100,39920.000,0.200,32380.000,0.300,5827.000,0.500,621.000,1.000,341.000,5.000,1.000
"07/11/06","16:00:14","AMMA06",78849.000,"cc",28364.428,6.00,2836.443,1,6,0.100,39360.000,0.200,32603.000,0.300,5839.000,0.500,689.000,1.000,358.000,5.000,0
"07/11/06","16:00:20","AMMA06",78286.000,"cc",28290.592,6.00,2829.059,1,6,0.100,39607.000,0.200,32156.000,0.300,5638.000,0.500,593.000,1.000,292.000,5.000,0
"07/11/06","16:00:26","AMMA06",78991.000,"cc",28284.676,6.00,2828.468,1,6,0.100,40098.000,0.200,32036.000,0.300,5766.000,0.500,723.000,1.000,368.000,5.000,0
"07/11/06","16:00:32","AMMA06",77930.000,"cc",28311.313,6.00,2831.131,1,6,0.100,39976.000,0.200,31953.000,0.300,5354.000,0.500,457.000,1.000,190.000,5.000,0
"07/11/06","16:00:38","AMMA06",77541.000,"cc",28272.816,6.00,2827.282,1,6,0.100,39462.000,0.200,31900.000,0.300,5389.000,0.500,510.000,1.000,280.000,5.000,0
"07/11/06","16:00:44","AMMA06",81101.000,"cc",28321.176,6.00,2832.118,1,6,0.100,40618.000,0.200,32520.000,0.300,6345.000,0.500,1059.000,1.000,559.000,5.000,0
"07/11/06","16:00:50","AMMA06",79805.000,"cc",28311.852,6.00,2831.185,1,6,0.100,40174.000,0.200,32155.000,0.300,6094.000,0.500,918.000,1.000,464.000,5.000,0
"07/11/06","16:00:56","AMMA06",78846.000,"cc",28313.902,6.00,2831.390,1,6,0.100,39749.000,0.200,32409.000,0.300,5659.000,0.500,681.000,1.000,348.000,5.000,0
"07/11/06","16:01:02","AMMA06",76909.000,"cc",28310.365,6.00,2831.037,1,6,0.100,39020.000,0.200,31882.000,0.300,5328.000,0.500,449.000,1.000,228.000,5.000,2.000
"07/11/06","16:01:08","AMMA06",77596.000,"cc",28310.424,6.00,2831.043,1,6,0.100,39772.000,0.200,31778.000,0.300,5299.000,0.500,495.000,1.000,251.000,5.000,1.000
"07/11/06","16:01:14","AMMA06",77814.000,"cc",28312.061,6.00,2831.206,1,6,0.100,40060.000,0.200,31574.000,0.300,5292.000,0.500,579.000,1.000,309.000,5.000,0
"07/11/06","16:01:20","AMMA06",77259.000,"cc",28347.787,6.00,2834.779,1,6,0.100,40009.000,0.200,31389.000,0.300,5235.000,0.500,411.000,1.000,215.000,5.000,0
"07/11/06","16:01:26","AMMA06",76504.000,"cc",28349.838,6.00,2834.984,1,6,0.100,39976.000,0.200,30795.000,0.300,5079.000,0.500,425.000,1.000,229.000,5.000,0
"07/11/06","16:01:32","AMMA06",77391.000,"cc",28270.406,6.00,2827.041,1,6,0.100,40700.000,0.200,30889.000,0.300,5177.000,0.500,432.000,1.000,193.000,5.000,0
"07/11/06","16:01:38","AMMA06",79908.000,"cc",28336.445,6.00,2833.645,1,6,0.100,41078.000,0.200,31860.000,0.300,5749.000,0.500,843.000,1.000,378.000,5.000,0
"07/11/06","16:01:44","AMMA06",78956.000,"cc",28315.391,6.00,2831.539,1,6,0.100,40830.000,0.200,31227.000,0.300,5714.000,0.500,799.000,1.000,386.000,5.000,0
"07/11/06","16:01:50","AMMA06",76328.000,"cc",28263.236,6.00,2826.324,1,6,0.100,40088.000,0.200,30719.000,0.300,5008.000,0.500,338.000,1.000,175.000,5.000,0
"07/11/06","16:01:56","AMMA06",77140.000,"cc",28316.627,6.00,2831.663,1,6,0.100,40441.000,0.200,30886.000,0.300,5075.000,0.500,496.000,1.000,242.000,5.000,0
"07/11/06","16:02:02","AMMA06",75863.000,"cc",28322.732,6.00,2832.273,1,6,0.100,39982.000,0.200,30243.000,0.300,4984.000,0.500,405.000,1.000,248.000,5.000,1.000
"07/11/06","16:02:08","AMMA06",76887.000,"cc",28337.125,6.00,2833.713,1,6,0.100,40488.000,0.200,30407.000,0.300,5129.000,0.500,581.000,1.000,282.000,5.000,0
"07/11/06","16:02:14","AMMA06",77619.000,"cc",28320.547,6.00,2832.055,1,6,0.100,41047.000,0.200,30258.000,0.300,5346.000,0.500,671.000,1.000,297.000,5.000,0
"07/11/06","16:02:20","AMMA06",76796.000,"cc",28328.607,6.00,2832.861,1,6,0.100,40692.000,0.200,30399.000,0.300,4986.000,0.500,494.000,1.000,225.000,5.000,0
"07/11/06","16:02:26","AMMA06",77151.000,"cc",28266.111,6.00,2826.611,1,6,0.100,40838.000,0.200,30422.000,0.300,5071.000,0.500,546.000,1.000,274.000,5.000,0
"07/11/06","16:02:32","AMMA06",76622.000,"cc",28310.781,6.00,2831.078,1,6,0.100,40663.000,0.200,30204.000,0.300,5066.000,0.500,474.000,1.000,215.000,5.000,0
"07/11/06","16:02:38","AMMA06",76714.000,"cc",28368.666,6.00,2836.867,1,6,0.100,40854.000,0.200,30140.000,0.300,5049.000,0.500,470.000,1.000,201.000,5.000,0
"07/11/06","16:02:44","AMMA06",76484.000,"cc",28341.090,6.00,2834.109,1,6,0.100,40612.000,0.200,30365.000,0.300,4865.000,0.500,430.000,1.000,212.000,5.000,0
"07/11/06","16:02:50","AMMA06",76441.000,"cc",28329.529,6.00,2832.953,1,6,0.100,40493.000,0.200,30196.000,0.300,5071.000,0.500,473.000,1.000,208.000,5.000,0
"07/11/06","16:02:56","AMMA06",77074.000,"cc",28279.590,6.00,2827.959,1,6,0.100,40700.000,0.200,30546.000,0.300,5092.000,0.500,495.000,1.000,241.000,5.000,0
"07/11/06","16:03:02","AMMA06",77952.000,"cc",28329.297,6.00,2832.930,1,6,0.100,41465.000,0.200,30335.000,0.300,5234.000,0.500,635.000,1.000,283.000,5.000,0
"07/11/06","16:03:08","AMMA06",76349.000,"cc",28314.871,6.00,2831.487,1,6,0.100,40456.000,0.200,30174.000,0.300,4987.000,0.500,495.000,1.000,236.000,5.000,1.000
"07/11/06","16:03:14","AMMA06",76706.000,"cc",28295.875,6.00,2829.588,1,6,0.100,40279.000,0.200,30373.000,0.300,5294.000,0.500,533.000,1.000,227.000,5.000,0
"07/11/06","16:03:20","AMMA06",77313.000,"cc",28340.824,6.00,2834.083,1,6,0.100,40626.000,0.200,30488.000,0.300,5400.000,0.500,537.000,1.000,262.000,5.000,0
"07/11/06","16:03:26","AMMA06",80528.000,"cc",28252.156,6.00,2825.216,1,6,0.100,41541.000,0.200,31488.000,0.300,6018.000,0.500,1029.000,1.000,452.000,5.000,0
"07/11/06","16:03:32","AMMA06",79359.000,"cc",28287.191,6.00,2828.719,1,6,0.100,40824.000,0.200,31127.000,0.300,5876.000,0.500,998.000,1.000,534.000,5.000,0
"07/11/06","16:03:38","AMMA06",78609.000,"cc",28350.455,6.00,2835.046,1,6,0.100,40884.000,0.200,30915.000,0.300,5693.000,0.500,763.000,1.000,354.000,5.000,0
"07/11/06","16:03:44","AMMA06",77962.000,"cc",28379.666,6.00,2837.967,1,6,0.100,40491.000,0.200,31056.000,0.300,5398.000,0.500,654.000,1.000,363.000,5.000,0
"07/11/06","16:03:50","AMMA06",76857.000,"cc",28291.180,6.00,2829.118,1,6,0.100,39742.000,0.200,30738.000,0.300,5470.000,0.500,598.000,1.000,309.000,5.000,0
"07/11/06","16:03:56","AMMA06",82516.000,"cc",28370.287,6.00,2837.029,1,6,0.100,41535.000,0.200,32085.000,0.300,6826.000,0.500,1341.000,1.000,729.000,5.000,0
"07/11/06","16:04:02","AMMA06",77616.000,"cc",28271.402,6.00,2827.140,1,6,0.100,39999.000,0.200,31087.000,0.300,5560.000,0.500,627.000,1.000,343.000,5.000,0
"07/11/06","16:04:08","AMMA06",80149.000,"cc",28351.316,6.00,2835.132,1,6,0.100,40614.000,0.200,31735.000,0.300,6186.000,0.500,1028.000,1.000,586.000,5.000,0
"07/11/06","16:04:14","AMMA06",77728.000,"cc",28299.002,6.00,2829.900,1,6,0.100,40101.000,0.200,31178.000,0.300,5568.000,0.500,578.000,1.000,303.000,5.000,0
"07/11/06","16:04:20","AMMA06",77841.000,"cc",28348.652,6.00,2834.866,1,6,0.100,39644.000,0.200,31364.000,0.300,5709.000,0.500,720.000,1.000,404.000,5.000,0
"07/11/06","16:04:26","AMMA06",77106.000,"cc",28272.363,6.00,2827.237,1,6,0.100,39788.000,0.200,31059.000,0.300,5479.000,0.500,511.000,1.000,269.000,5.000,0
"07/11/06","16:04:32","AMMA06",76635.000,"cc",28305.238,6.00,2830.524,1,6,0.100,39260.000,0.200,31138.000,0.300,5448.000,0.500,517.000,1.000,272.000,5.000,0
"07/11/06","16:04:38","AMMA06",78420.000,"cc",28331.775,6.00,2833.178,1,6,0.100,40021.000,0.200,31393.000,0.300,5849.000,0.500,744.000,1.000,413.000,5.000,0
"07/11/06","16:04:44","AMMA06",87320.000,"cc",28338.359,6.00,2833.836,1,6,0.100,42683.000,0.200,33559.000,0.300,8050.000,0.500,2019.000,1.000,1009.000,5.000,0
"07/11/06","16:04:50","AMMA06",81485.000,"cc",28366.453,6.00,2836.646,1,6,0.100,41604.000,0.200,32117.000,0.300,6236.000,0.500,1000.000,1.000,528.000,5.000,0
"07/11/06","16:04:56","AMMA06",82976.000,"cc",28355.658,6.00,2835.566,1,6,0.100,43118.000,0.200,32372.000,0.300,6081.000,0.500,903.000,1.000,502.000,5.000,0
"07/11/06","16:05:02","AMMA06",77525.000,"cc",28288.426,6.00,2828.843,1,6,0.100,39810.000,0.200,31276.000,0.300,5624.000,0.500,535.000,1.000,280.000,5.000,0
"07/11/06","16:05:08","AMMA06",77624.000,"cc",28313.320,6.00,2831.332,1,6,0.100,39559.000,0.200,31434.000,0.300,5688.000,0.500,587.000,1.000,356.000,5.000,0
"07/11/06","16:05:14","AMMA06",78811.000,"cc",28303.797,6.00,2830.380,1,6,0.100,40033.000,0.200,31620.000,0.300,5918.000,0.500,836.000,1.000,404.000,5.000,0
"07/11/06","16:05:20","AMMA06",76924.000,"cc",28336.531,6.00,2833.653,1,6,0.100,38817.000,0.200,31428.000,0.300,5699.000,0.500,652.000,1.000,327.000,5.000,1.000
"07/11/06","16:05:26","AMMA06",79781.000,"cc",28341.588,6.00,2834.159,1,6,0.100,41024.000,0.200,31428.000,0.300,5925.000,0.500,920.000,1.000,484.000,5.000,0
"07/11/06","16:05:32","AMMA06",78590.000,"cc",28318.076,6.00,2831.808,1,6,0.100,39747.000,0.200,31804.000,0.300,5864.000,0.500,778.000,1.000,397.000,5.000,0
"07/11/06","16:05:38","AMMA06",79955.000,"cc",28285.522,6.00,2828.552,1,6,0.100,40300.000,0.200,31732.000,0.300,6345.000,0.500,1029.000,1.000,549.000,5.000,0
"07/11/06","16:05:44","AMMA06",79357.000,"cc",28334.037,6.00,2833.404,1,6,0.100,40290.000,0.200,31655.000,0.300,6102.000,0.500,857.000,1.000,453.000,5.000,0
"07/11/06","16:05:50","AMMA06",79689.000,"cc",28324.801,6.00,2832.480,1,6,0.100,40519.000,0.200,31590.000,0.300,6084.000,0.500,1004.000,1.000,492.000,5.000,0
"07/11/06","16:05:56","AMMA06",77013.000,"cc",28294.365,6.00,2829.437,1,6,0.100,40227.000,0.200,30637.000,0.300,5359.000,0.500,548.000,1.000,241.000,5.000,1.000
"07/11/06","16:06:02","AMMA06",76802.000,"cc",28298.084,6.00,2829.809,1,6,0.100,40258.000,0.200,30593.000,0.300,5179.000,0.500,503.000,1.000,269.000,5.000,0
"07/11/06","16:06:08","AMMA06",76872.000,"cc",28289.852,6.00,2828.985,1,6,0.100,40149.000,0.200,30648.000,0.300,5320.000,0.500,522.000,1.000,233.000,5.000,0
"07/11/06","16:06:14","AMMA06",78077.000,"cc",28291.676,6.00,2829.168,1,6,0.100,40692.000,0.200,30818.000,0.300,5537.000,0.500,695.000,1.000,335.000,5.000,0
"07/11/06","16:06:20","AMMA06",78293.000,"cc",28308.416,6.00,2830.842,1,6,0.100,40555.000,0.200,30750.000,0.300,5827.000,0.500,799.000,1.000,362.000,5.000,0
"07/11/06","16:06:26","AMMA06",76467.000,"cc",28326.639,6.00,2832.664,1,6,0.100,40633.000,0.200,30000.000,0.300,5103.000,0.500,527.000,1.000,204.000,5.000,0
"07/11/06","16:06:32","AMMA06",76001.000,"cc",28320.709,6.00,2832.071,1,6,0.100,40240.000,0.200,30159.000,0.300,4994.000,0.500,416.000,1.000,192.000,5.000,0
"07/11/06","16:06:38","AMMA06",81650.000,"cc",28376.561,6.00,2837.656,1,6,0.100,42414.000,0.200,31014.000,0.300,6425.000,0.500,1238.000,1.000,559.000,5.000,0
"07/11/06","16:06:44","AMMA06",79885.000,"cc",28315.561,6.00,2831.556,1,6,0.100,41939.000,0.200,30563.000,0.300,5953.000,0.500,962.000,1.000,468.000,5.000,0
"07/11/06","16:06:50","AMMA06",76442.000,"cc",28274.371,6.00,2827.437,1,6,0.100,40215.000,0.200,30357.000,0.300,5137.000,0.500,486.000,1.000,247.000,5.000,0
"07/11/06","16:06:56","AMMA06",76401.000,"cc",28335.844,6.00,2833.585,1,6,0.100,40852.000,0.200,29475.000,0.300,5224.000,0.500,602.000,1.000,248.000,5.000,0
"07/11/06","16:07:02","AMMA06",77066.000,"cc",28291.738,6.00,2829.174,1,6,0.100,40784.000,0.200,30203.000,0.300,5319.000,0.500,510.000,1.000,250.000,5.000,0
"07/11/06","16:07:08","AMMA06",76760.000,"cc",28340.398,6.00,2834.040,1,6,0.100,41485.000,0.200,29421.000,0.300,5079.000,0.500,536.000,1.000,239.000,5.000,0
"07/11/06","16:07:14","AMMA06",78467.000,"cc",28330.779,6.00,2833.078,1,6,0.100,41638.000,0.200,29922.000,0.300,5615.000,0.500,893.000,1.000,399.000,5.000,0
"07/11/06","16:07:20","AMMA06",77415.000,"cc",28297.695,6.00,2829.770,1,6,0.100,41626.000,0.200,29839.000,0.300,5115.000,0.500,579.000,1.000,256.000,5.000,0
"07/11/06","16:07:26","AMMA06",82732.000,"cc",28297.752,6.00,2829.775,1,6,0.100,45353.000,0.200,30840.000,0.300,5481.000,0.500,726.000,1.000,332.000,5.000,0
"07/11/06","16:07:32","AMMA06",77762.000,"cc",28304.742,6.00,2830.474,1,6,0.100,42086.000,0.200,29492.000,0.300,5195.000,0.500,672.000,1.000,317.000,5.000,0
"07/11/06","16:07:38","AMMA06",77688.000,"cc",28339.057,6.00,2833.906,1,6,0.100,41624.000,0.200,29651.000,0.300,5331.000,0.500,724.000,1.000,358.000,5.000,0
"07/11/06","16:07:44","AMMA06",76791.000,"cc",28297.740,6.00,2829.774,1,6,0.100,41214.000,0.200,29656.000,0.300,5151.000,0.500,530.000,1.000,240.000,5.000,0
"07/11/06","16:07:50","AMMA06",81422.000,"cc",28337.158,6.00,2833.716,1,6,0.100,44002.000,0.200,30091.000,0.300,5836.000,0.500,1055.000,1.000,438.000,5.000,0
"07/11/06","16:07:56","AMMA06",78864.000,"cc",28322.631,6.00,2832.263,1,6,0.100,42063.000,0.200,29849.000,0.300,5624.000,0.500,919.000,1.000,409.000,5.000,0
"07/11/06","16:08:02","AMMA06",82434.000,"cc",28314.307,6.00,2831.431,1,6,0.100,44028.000,0.200,30460.000,0.300,6123.000,0.500,1233.000,1.000,590.000,5.000,0
"07/11/06","16:08:08","AMMA06",76483.000,"cc",28321.523,6.00,2832.153,1,6,0.100,41489.000,0.200,29369.000,0.300,4911.000,0.500,495.000,1.000,219.000,5.000,0
"07/11/06","16:08:14","AMMA06",76371.000,"cc",28311.566,6.00,2831.157,1,6,0.100,41229.000,0.200,29484.000,0.300,4984.000,0.500,465.000,1.000,208.000,5.000,1.000
"07/11/06","16:08:20","AMMA06",77977.000,"cc",28318.561,6.00,2831.856,1,6,0.100,42149.000,0.200,29718.000,0.300,5161.000,0.500,644.000,1.000,305.000,5.000,0
"07/11/06","16:08:26","AMMA06",80032.000,"cc",28311.441,6.00,2831.144,1,6,0.100,43322.000,0.200,30312.000,0.300,5375.000,0.500,692.000,1.000,331.000,5.000,0
"07/11/06","16:08:32","AMMA06",77743.000,"cc",28318.190,6.00,2831.819,1,6,0.100,41967.000,0.200,29931.000,0.300,5049.000,0.500,531.000,1.000,265.000,5.000,0
"07/11/06","16:08:38","AMMA06",81744.000,"cc",28333.139,6.00,2833.314,1,6,0.100,44812.000,0.200,30694.000,0.300,5331.000,0.500,601.000,1.000,306.000,5.000,0
"07/11/06","16:08:44","AMMA06",80813.000,"cc",28248.250,6.00,2824.825,1,6,0.100,43385.000,0.200,30599.000,0.300,5688.000,0.500,769.000,1.000,372.000,5.000,0
"07/11/06","16:08:50","AMMA06",85691.000,"cc",28359.869,6.00,2835.987,1,6,0.100,47935.000,0.200,31492.000,0.300,5474.000,0.500,529.000,1.000,261.000,5.000,0
"07/11/06","16:08:56","AMMA06",92389.000,"cc",28361.645,6.00,2836.165,1,6,0.100,52031.000,0.200,32743.000,0.300,6238.000,0.500,951.000,1.000,426.000,5.000,0
"07/11/06","16:09:02","AMMA06",94105.000,"cc",28265.955,6.00,2826.596,1,6,0.100,52803.000,0.200,33135.000,0.300,6490.000,0.500,1174.000,1.000,503.000,5.000,0
"07/11/06","16:09:08","AMMA06",84637.000,"cc",28292.887,6.00,2829.289,1,6,0.100,45190.000,0.200,31711.000,0.300,6187.000,0.500,1048.000,1.000,501.000,5.000,0
"07/11/06","16:09:14","AMMA06",82750.000,"cc",28282.977,6.00,2828.298,1,6,0.100,44566.000,0.200,31433.000,0.300,5671.000,0.500,723.000,1.000,357.000,5.000,0
"07/11/06","16:09:20","AMMA06",80786.000,"cc",28325.438,6.00,2832.544,1,6,0.100,42041.000,0.200,31377.000,0.300,5965.000,0.500,965.000,1.000,438.000,5.000,0
"07/11/06","16:09:26","AMMA06",79899.000,"cc",28296.039,6.00,2829.604,1,6,0.100,41382.000,0.200,31331.000,0.300,5920.000,0.500,874.000,1.000,392.000,5.000,0
"07/11/06","16:09:32","AMMA06",81412.000,"cc",28361.639,6.00,2836.164,1,6,0.100,41984.000,0.200,31577.000,0.300,6320.000,0.500,1044.000,1.000,487.000,5.000,0
"07/11/06","16:09:38","AMMA06",79939.000,"cc",28331.863,6.00,2833.187,1,6,0.100,41565.000,0.200,31222.000,0.300,5849.000,0.500,850.000,1.000,453.000,5.000,0
"07/11/06","16:09:44","AMMA06",84363.000,"cc",28333.725,6.00,2833.373,1,6,0.100,45172.000,0.200,32079.000,0.300,5909.000,0.500,784.000,1.000,419.000,5.000,0
"07/11/06","16:09:50","AMMA06",79117.000,"cc",28362.315,6.00,2836.232,1,6,0.100,40423.000,0.200,30964.000,0.300,6253.000,0.500,981.000,1.000,496.000,5.000,0
"07/11/06","16:09:56","AMMA06",78994.000,"cc",28291.553,6.00,2829.156,1,6,0.100,40483.000,0.200,31126.000,0.300,5999.000,0.500,912.000,1.000,474.000,5.000,0
"07/11/06","16:10:02","AMMA06",85280.000,"cc",28289.557,6.00,2828.956,1,6,0.100,44737.000,0.200,32553.000,0.300,6271.000,0.500,1097.000,1.000,622.000,5.000,0
"07/11/06","16:10:08","AMMA06",83482.000,"cc",28332.397,6.00,2833.240,1,6,0.100,42841.000,0.200,32020.000,0.300,6652.000,0.500,1253.000,1.000,716.000,5.000,0
"07/11/06","16:10:14","AMMA06",81345.000,"cc",28343.373,6.00,2834.337,1,6,0.100,41839.000,0.200,31594.000,0.300,6296.000,0.500,1055.000,1.000,561.000,5.000,0
"07/11/06","16:10:20","AMMA06",87604.000,"cc",28319.727,6.00,2831.973,1,6,0.100,46165.000,0.200,32639.000,0.300,6832.000,0.500,1292.000,1.000,676.000,5.000,0
"07/11/06","16:10:26","AMMA06",81666.000,"cc",28330.088,6.00,2833.009,1,6,0.100,41795.000,0.200,31756.000,0.300,6508.000,0.500,1065.000,1.000,542.000,5.000,0
"07/11/06","16:10:32","AMMA06",79321.000,"cc",28327.793,6.00,2832.780,1,6,0.100,40194.000,0.200,31523.000,0.300,6166.000,0.500,963.000,1.000,475.000,5.000,0
"07/11/06","16:10:38","AMMA06",77690.000,"cc",28241.846,6.00,2824.185,1,6,0.100,39911.000,0.200,31210.000,0.300,5595.000,0.500,647.000,1.000,327.000,5.000,0
"07/11/06","16:10:44","AMMA06",80377.000,"cc",28310.840,6.00,2831.084,1,6,0.100,40842.000,0.200,31597.000,0.300,6372.000,0.500,993.000,1.000,573.000,5.000,0
"07/11/06","16:10:50","AMMA06",79410.000,"cc",28320.369,6.00,2832.037,1,6,0.100,40911.000,0.200,31373.000,0.300,5850.000,0.500,819.000,1.000,457.000,5.000,0
"07/11/06","16:10:56","AMMA06",77392.000,"cc",28292.350,6.00,2829.235,1,6,0.100,39812.000,0.200,31197.000,0.300,5552.000,0.500,539.000,1.000,292.000,5.000,0
"07/11/06","16:11:02","AMMA06",79142.000,"cc",28328.106,6.00,2832.811,1,6,0.100,40303.000,0.200,31650.000,0.300,5885.000,0.500,816.000,1.000,488.000,5.000,0
"07/11/06","16:11:08","AMMA06",78039.000,"cc",28370.361,6.00,2837.036,1,6,0.100,39904.000,0.200,31223.000,0.300,5765.000,0.500,725.000,1.000,422.000,5.000,0
"07/11/06","16:11:14","AMMA06",76866.000,"cc",28304.477,6.00,2830.448,1,6,0.100,39660.000,0.200,30719.000,0.300,5584.000,0.500,591.000,1.000,312.000,5.000,0
"07/11/06","16:11:20","AMMA06",78292.000,"cc",28299.629,6.00,2829.963,1,6,0.100,40469.000,0.200,30986.000,0.300,5675.000,0.500,760.000,1.000,402.000,5.000,0
"07/11/06","16:11:26","AMMA06",76789.000,"cc",28300.195,6.00,2830.020,1,6,0.100,39836.000,0.200,30482.000,0.300,5550.000,0.500,636.000,1.000,285.000,5.000,0
"07/11/06","16:11:32","AMMA06",76687.000,"cc",28331.246,6.00,2833.125,1,6,0.100,40029.000,0.200,30394.000,0.300,5405.000,0.500,554.000,1.000,305.000,5.000,0
"07/11/06","16:11:38","AMMA06",76476.000,"cc",28374.186,6.00,2837.419,1,6,0.100,40346.000,0.200,30317.000,0.300,5132.000,0.500,437.000,1.000,244.000,5.000,0
"07/11/06","16:11:44","AMMA06",76767.000,"cc",28317.047,6.00,2831.705,1,6,0.100,40427.000,0.200,30160.000,0.300,5270.000,0.500,614.000,1.000,296.000,5.000,0
"07/11/06","16:11:50","AMMA06",78903.000,"cc",28275.387,6.00,2827.539,1,6,0.100,41414.000,0.200,30552.000,0.300,5695.000,0.500,850.000,1.000,392.000,5.000,0
"07/11/06","16:11:56","AMMA06",79775.000,"cc",28333.604,6.00,2833.361,1,6,0.100,41787.000,0.200,30837.000,0.300,5834.000,0.500,856.000,1.000,461.000,5.000,0
"07/11/06","16:12:02","AMMA06",77902.000,"cc",28341.006,6.00,2834.101,1,6,0.100,41253.000,0.200,30548.000,0.300,5307.000,0.500,547.000,1.000,247.000,5.000,0
"07/11/06","16:12:08","AMMA06",76979.000,"cc",28258.973,6.00,2825.898,1,6,0.100,40465.000,0.200,30069.000,0.300,5476.000,0.500,681.000,1.000,288.000,5.000,0
"07/11/06","16:12:14","AMMA06",76725.000,"cc",28270.645,6.00,2827.065,1,6,0.100,40524.000,0.200,30103.000,0.300,5313.000,0.500,498.000,1.000,287.000,5.000,0
"07/11/06","16:12:20","AMMA06",77953.000,"cc",28329.158,6.00,2832.916,1,6,0.100,41000.000,0.200,30337.000,0.300,5518.000,0.500,761.000,1.000,337.000,5.000,0
"07/11/06","16:12:26","AMMA06",77846.000,"cc",28363.824,6.00,2836.383,1,6,0.100,41094.000,0.200,29741.000,0.300,5704.000,0.500,873.000,1.000,434.000,5.000,0
"07/11/06","16:12:32","AMMA06",76149.000,"cc",28260.406,6.00,2826.041,1,6,0.100,40773.000,0.200,29555.000,0.300,5067.000,0.500,515.000,1.000,239.000,5.000,0
"07/11/06","16:12:38","AMMA06",77230.000,"cc",28371.133,6.00,2837.114,1,6,0.100,41396.000,0.200,29913.000,0.300,5113.000,0.500,563.000,1.000,245.000,5.000,0
"07/11/06","16:12:44","AMMA06",79654.000,"cc",28335.018,6.00,2833.502,1,6,0.100,41961.000,0.200,30468.000,0.300,5774.000,0.500,977.000,1.000,474.000,5.000,0
"07/11/06","16:12:50","AMMA06",77586.000,"cc",28284.195,6.00,2828.420,1,6,0.100,41533.000,0.200,29683.000,0.300,5331.000,0.500,725.000,1.000,314.000,5.000,0
"07/11/06","16:12:56","AMMA06",78898.000,"cc",28273.231,6.00,2827.323,1,6,0.100,42010.000,0.200,29979.000,0.300,5565.000,0.500,901.000,1.000,443.000,5.000,0
"07/11/06","16:13:02","AMMA06",80634.000,"cc",28319.252,6.00,2831.925,1,6,0.100,42522.000,0.200,30115.000,0.300,6170.000,0.500,1259.000,1.000,568.000,5.000,0
"07/11/06","16:13:08","AMMA06",83133.000,"cc",28415.629,6.00,2841.563,1,6,0.100,45881.000,0.200,30298.000,0.300,5583.000,0.500,947.000,1.000,424.000,5.000,0
"07/11/06","16:13:14","AMMA06",77407.000,"cc",28277.877,6.00,2827.788,1,6,0.100,41874.000,0.200,29407.000,0.300,5226.000,0.500,612.000,1.000,288.000,5.000,0
"07/11/06","16:13:20","AMMA06",78831.000,"cc",28285.723,6.00,2828.573,1,6,0.100,41977.000,0.200,30176.000,0.300,5446.000,0.500,810.000,1.000,422.000,5.000,0
"07/11/06","16:13:26","AMMA06",79155.000,"cc",28281.072,6.00,2828.107,1,6,0.100,42930.000,0.200,29905.000,0.300,5368.000,0.500,641.000,1.000,311.000,5.000,0
"07/11/06","16:13:32","AMMA06",85604.000,"cc",28301.852,6.00,2830.185,1,6,0.100,44218.000,0.200,31129.000,0.300,7340.000,0.500,1966.000,1.000,951.000,5.000,0
"07/11/06","16:13:38","AMMA06",85948.000,"cc",28312.039,6.00,2831.204,1,6,0.100,44829.000,0.200,31804.000,0.300,7033.000,0.500,1568.000,1.000,714.000,5.000,0
"07/11/06","16:13:44","AMMA06",90135.000,"cc",28389.549,6.00,2838.955,1,6,0.100,45891.000,0.200,32711.000,0.300,8261.000,0.500,2238.000,1.000,1034.000,5.000,0
"07/11/06","16:13:50","AMMA06",81589.000,"cc",28312.330,6.00,2831.233,1,6,0.100,42196.000,0.200,31141.000,0.300,6348.000,0.500,1279.000,1.000,625.000,5.000,0
"07/11/06","16:13:56","AMMA06",80091.000,"cc",28320.865,6.00,2832.087,1,6,0.100,42145.000,0.200,30701.000,0.300,5849.000,0.500,923.000,1.000,473.000,5.000,0
"07/11/06","16:14:02","AMMA06",78218.000,"cc",28307.563,6.00,2830.756,1,6,0.100,41697.000,0.200,30309.000,0.300,5319.000,0.500,588.000,1.000,305.000,5.000,0
"07/11/06","16:14:08","AMMA06",81447.000,"cc",28311.727,6.00,2831.173,1,6,0.100,41901.000,0.200,31410.000,0.300,6285.000,0.500,1244.000,1.000,607.000,5.000,0
"07/11/06","16:14:14","AMMA06",79608.000,"cc",28353.191,6.00,2835.319,1,6,0.100,41793.000,0.200,30854.000,0.300,5717.000,0.500,825.000,1.000,419.000,5.000,0